Mineola, TX

11:18 PM CDT on March 24, 2017 (GMT -0500)
Mineola

Weather History for KJDD - December, 2012

Change the Weather History Date:

Saturday, December 15, 2012

  Actual Average (KTYR) Record (KTYR)
Temperature  
Mean Temperature 62 °F -  
Max Temperature 71 °F 56 °F 79 °F (1975)
Min Temperature 53 °F 36 °F 14 °F (1958)
Degree Days  
Heating Degree Days 3    
Growing Degree Days 12 (Base 50)    
Moisture  
Dew Point 47 °F    
Average Humidity 64    
Maximum Humidity 100    
Minimum Humidity 25    
Precipitation  
Precipitation 0.00 in - - ()
Sea Level Pressure  
Sea Level Pressure 29.88 in    
Wind  
Wind Speed 5 mph (SSW)    
Max Wind Speed 10 mph    
Max Gust Speed -    
Visibility 9 miles    
Events Rain    
Averages and records for this station are not official NWS values.
T = Trace of Precipitation, MM = Missing Value Source: NWS Daily Summary

Daily Weather History Graph

Daily Weather History Graph

Search for Another Location

Airport or City:

Trip Planner

Search our weather history database for the weather conditions in past years. The results will help you decide how hot, cold, wet, or windy it might be!

Date:

Astronomy

Dec. 15, 2012 Rise Set
Actual Time 7:17 AM CST 5:17 PM CST
Civil Twilight 6:49 AM CST 5:44 PM CST
Nautical Twilight 6:19 AM CST 6:15 PM CST
Astronomical Twilight 5:49 AM CST 6:45 PM CST
Moon 9:16 AM CST (12/15) 8:15 PM CST (12/15)
Length of Visible Light 10h 55m
Length of Day
10h 00m
Waxing Crescent, 8% of the Moon is Illuminated
Dec 15
Waxing Crescent
Dec 19
First Quarter
Dec 28
Full
Jan 4
Last Quarter
Jan 11
New

Hourly Weather History & Observations

Time (CST) Temp. Dew Point Humidity Pressure Visibility Wind Dir Wind Speed Gust Speed Precip Events Conditions
12:15 AM 57.2 °F 57.2 °F 100% 29.92 in 5.0 mi South 5.8 mph - N/A   Overcast
12:35 AM 57.2 °F 57.2 °F 100% 29.88 in 4.0 mi SE 9.2 mph - N/A   Overcast
12:55 AM 59.0 °F 59.0 °F 100% 29.88 in 5.0 mi South 8.1 mph - N/A   Overcast
1:15 AM 60.8 °F 60.8 °F 100% 29.87 in 5.0 mi South 10.4 mph - N/A   Overcast
1:35 AM 60.8 °F 60.8 °F 100% 29.88 in 4.0 mi SSE 8.1 mph - N/A   Overcast
1:55 AM 60.8 °F 60.8 °F 100% 29.87 in 5.0 mi South 6.9 mph - N/A   Overcast
2:15 AM 62.6 °F 62.6 °F 100% 29.88 in 6.0 mi SSW 5.8 mph - N/A   Overcast
2:35 AM 62.6 °F 62.6 °F 100% 29.90 in 5.0 mi West 6.9 mph - N/A Rain Heavy Rain
2:55 AM 62.6 °F 62.6 °F 100% 29.89 in 1.2 mi West 3.5 mph - N/A Rain Heavy Rain
3:15 AM 62.6 °F 62.6 °F 100% 29.89 in 3.0 mi Calm Calm - N/A   Overcast
3:35 AM 60.8 °F 60.8 °F 100% 29.88 in 6.0 mi Calm Calm - N/A   Overcast
3:55 AM 60.8 °F 60.8 °F 100% 29.88 in 7.0 mi Calm Calm - N/A   Mostly Cloudy
4:15 AM 60.8 °F 60.8 °F 100% 29.89 in 5.0 mi Calm Calm - N/A   Mostly Cloudy
4:35 AM 60.8 °F 60.8 °F 100% 29.88 in 7.0 mi South 3.5 mph - N/A   Scattered Clouds
4:55 AM 62.6 °F 62.6 °F 100% 29.89 in 7.0 mi SSW 4.6 mph - N/A   Mostly Cloudy
5:15 AM 60.8 °F 60.8 °F 100% 29.88 in 6.0 mi South 3.5 mph - N/A   Mostly Cloudy
5:35 AM 60.8 °F 60.8 °F 100% 29.89 in 9.0 mi SSW 4.6 mph - N/A   Overcast
6:15 AM 60.8 °F 60.8 °F 100% 29.91 in 10.0 mi Calm Calm - N/A   Overcast
6:35 AM 62.6 °F 59.0 °F 88% 29.91 in 10.0 mi Calm Calm - N/A   Overcast
6:55 AM 60.8 °F 57.2 °F 88% 29.91 in 10.0 mi Calm Calm - N/A   Mostly Cloudy
7:15 AM 60.8 °F 57.2 °F 88% 29.92 in 10.0 mi Calm Calm - N/A   Mostly Cloudy
7:35 AM 60.8 °F 57.2 °F 88% 29.93 in 10.0 mi SSW 3.5 mph - N/A   Partly Cloudy
8:15 AM 60.8 °F 53.6 °F 77% 29.94 in 10.0 mi Calm Calm - N/A   Mostly Cloudy
8:35 AM 60.8 °F 55.4 °F 82% 29.93 in 10.0 mi Calm Calm - N/A   Partly Cloudy
8:55 AM 62.6 °F 53.6 °F 72% 29.94 in 10.0 mi SSW 4.6 mph - N/A   Clear
9:15 AM 62.6 °F 53.6 °F 72% 29.93 in 10.0 mi SSW 3.5 mph - N/A   Clear
9:35 AM 64.4 °F 55.4 °F 73% 29.94 in 10.0 mi SSW 5.8 mph - N/A   Clear
9:55 AM 66.2 °F 50.0 °F 56% 29.94 in 10.0 mi WSW 8.1 mph - N/A   Clear
10:15 AM 66.2 °F 48.2 °F 52% 29.94 in 10.0 mi WSW 6.9 mph - N/A   Clear
10:35 AM 66.2 °F 42.8 °F 43% 29.94 in 10.0 mi WSW 10.4 mph - N/A   Clear
10:55 AM 69.8 °F 39.2 °F 33% 29.94 in 10.0 mi SW 10.4 mph - N/A   Mostly Cloudy
11:15 AM - - N/A% 29.92 in 10.0 mi WSW 10.4 mph - N/A   Partly Cloudy
11:35 AM 69.8 °F 37.4 °F 31% 29.93 in 10.0 mi SW 8.1 mph - N/A   Clear
11:55 AM 69.8 °F 35.6 °F 28% 29.92 in 10.0 mi WSW 10.4 mph - N/A   Scattered Clouds
12:15 PM 71.6 °F 35.6 °F 27% 29.90 in 10.0 mi WSW 9.2 mph - N/A   Mostly Cloudy
12:35 PM 69.8 °F 35.6 °F 28% 29.90 in 10.0 mi SSW 6.9 mph - N/A   Mostly Cloudy
12:55 PM 71.6 °F 35.6 °F 27% 29.89 in 10.0 mi SSW 5.8 mph - N/A   Scattered Clouds
1:15 PM 71.6 °F 35.6 °F 27% 29.87 in 10.0 mi SSW 8.1 mph - N/A   Partly Cloudy
1:35 PM 69.8 °F 35.6 °F 28% 29.87 in 10.0 mi SSW 8.1 mph - N/A   Scattered Clouds
1:55 PM 69.8 °F 35.6 °F 28% 29.87 in 10.0 mi SSW 8.1 mph - N/A   Mostly Cloudy
2:15 PM 69.8 °F 35.6 °F 28% 29.86 in 10.0 mi SW 8.1 mph - N/A   Overcast
2:35 PM 69.8 °F 33.8 °F 27% 29.85 in 10.0 mi SW 9.2 mph - N/A   Overcast
2:55 PM 69.8 °F 35.6 °F 28% 29.85 in 10.0 mi SW 8.1 mph - N/A   Overcast
3:15 PM 71.6 °F 33.8 °F 25% 29.85 in 10.0 mi SSW 5.8 mph - N/A   Mostly Cloudy
3:35 PM 71.6 °F 33.8 °F 25% 29.86 in 10.0 mi SW 6.9 mph - N/A   Partly Cloudy
3:55 PM 69.8 °F 33.8 °F 27% 29.85 in 10.0 mi SSW 9.2 mph - N/A   Clear
4:15 PM 69.8 °F 33.8 °F 27% 29.85 in 10.0 mi SW 5.8 mph - N/A   Clear
4:35 PM 69.8 °F 33.8 °F 27% 29.86 in 9.0 mi SSW 5.8 mph - N/A   Clear
4:55 PM 66.2 °F 35.6 °F 32% 29.86 in 7.0 mi SSW 4.6 mph - N/A   Clear
5:15 PM 64.4 °F 37.4 °F 37% 29.86 in 10.0 mi Calm Calm - N/A   Clear
5:35 PM 64.4 °F 37.4 °F 37% 29.86 in 7.0 mi Calm Calm - N/A   Clear
5:55 PM 62.6 °F 37.4 °F 39% 29.86 in 9.0 mi Calm Calm - N/A   Clear
6:15 PM 60.8 °F 39.2 °F 45% 29.85 in 10.0 mi SSE 3.5 mph - N/A   Clear
6:35 PM 62.6 °F 39.2 °F 42% 29.86 in 6.0 mi South 4.6 mph - N/A   Haze
6:55 PM 62.6 °F 39.2 °F 42% 29.86 in 10.0 mi South 3.5 mph - N/A   Clear
7:15 PM 62.6 °F 41.0 °F 45% 29.86 in 10.0 mi Calm Calm - N/A   Clear
7:35 PM 60.8 °F 42.8 °F 52% 29.86 in 10.0 mi Calm Calm - N/A   Clear
7:55 PM 57.2 °F 44.6 °F 63% 29.86 in 10.0 mi Calm Calm - N/A   Clear
8:15 PM 55.4 °F 46.4 °F 72% 29.86 in 10.0 mi Calm Calm - N/A   Clear
8:35 PM 57.2 °F 44.6 °F 63% 29.86 in 10.0 mi Calm Calm - N/A   Clear
8:55 PM 55.4 °F 46.4 °F 72% 29.86 in 10.0 mi Calm Calm - N/A   Clear
9:15 PM 55.4 °F 46.4 °F 72% 29.86 in 10.0 mi Calm Calm - N/A   Clear
9:35 PM 55.4 °F 44.6 °F 67% 29.86 in 10.0 mi Calm Calm - N/A   Clear
9:55 PM 55.4 °F 44.6 °F 67% 29.87 in 10.0 mi Calm Calm - N/A   Clear
10:15 PM 55.4 °F 44.6 °F 67% 29.86 in 10.0 mi Calm Calm - N/A   Clear
10:35 PM 53.6 °F 44.6 °F 72% 29.87 in 10.0 mi Calm Calm - N/A   Clear
10:55 PM 55.4 °F 42.8 °F 63% 29.86 in 10.0 mi Calm Calm - N/A   Clear
11:15 PM 55.4 °F 44.6 °F 67% 29.86 in 10.0 mi Calm Calm - N/A   Clear
11:35 PM 53.6 °F 46.4 °F 77% 29.87 in 10.0 mi Calm Calm - N/A   Clear
11:55 PM 53.6 °F 46.4 °F 77% 29.86 in 10.0 mi Calm Calm - N/A   Clear